Location: ?p Thanh B�nh
(16.5833°N, 107.5333°E)
Time: 05:07:28
(UTC+00:00)

Nadezhda 4 Rocket - Pass Details

Date: 29 October 2020
Orbit: 951 x 991 km, 82.9° (Epoch: 29 November)

Event Time Altitude Azimuth Distance (km) Brightness Sun altitude
Rises 20:38:04 0° 184° (S) 3,615 7.0 -31.2°
Reaches altitude 10° 20:40:33 10° 185° (S) 2,668 6.3 -30.6°
Enters shadow 20:45:13 56° 189° (S) 1,120 4.2 -29.5°
Exits shadow 20:47:36 66° 355° (N) 1,032 3.9 -28.9°
Drops below altitude 10° 20:52:46 10° 3° (N) 2,674 6.2 -27.7°
Sets 20:55:15 0° 4° (N) 3,623 7.0 -27.1°
